Wind_Speed
24 24 24 24 24 24 24 25 25 23 23 22 22 22 22 22 22 21 21 21 21 22 22 23 24 25 25 25 26 26 26 27 27 27 28 28 28 28 29 29 30 30 30 30
23 23 23 24 23 24 24 24 24 24 23 22 22 22 22 22 22 22 22 22 22 22 22 23 24 25 24 24 25 25 26 27 28 27 27 28 28 28 28 29 29 29 29 28
23 22 23 22 21 22 23 24 24 24 23 23 23 23 22 23 23 23 23 23 23 23 22 23 23 24 24 24 24 25 27 27 27 27 28 28 28 29 29 28 28 28 27 27
23 22 23 21 21 22 23 23 23 24 23 22 22 23 23 23 24 24 24 24 24 23 23 24 23 23 23 23 24 24 25 26 27 26 26 27 27 28 28 28 28 28 28 27
23 23 24 22 22 23 23 22 22 22 23 23 23 23 24 24 24 24 25 24 23 22 23 23 23 22 22 23 23 24 24 24 25 25 26 26 27 27 28 28 28 29 29 28
24 25 25 24 23 23 23 22 21 21 22 23 24 25 25 24 24 24 25 25 24 23 23 22 22 22 22 22 23 23 23 23 24 25 26 26 27 27 27 27 28 28 28 28
26 26 26 24 23 23 23 22 22 22 22 23 24 25 25 25 25 25 25 24 23 24 23 23 22 22 22 22 22 22 22 23 25 25 25 26 27 27 27 27 28 28 28 28
26 27 25 23 24 24 24 24 24 24 24 25 25 25 25 25 26 26 24 24 23 23 23 23 23 23 23 23 22 22 22 23 25 25 25 25 26 26 27 27 28 28 27 27
26 25 24 24 25 25 25 25 26 26 26 27 26 26 26 26 26 25 24 24 24 24 23 24 24 24 24 24 24 23 23 25 25 25 25 25 25 26 26 26 26 26 26 25
26 25 24 25 25 26 26 27 26 26 27 28 27 27 26 26 26 25 25 24 23 24 24 24 25 25 25 25 23 23 24 24 24 25 25 25 25 25 24 24 25 25 24 24
26 24 24 24 25 26 26 26 26 27 28 27 27 27 27 27 26 25 24 24 23 23 24 24 25 25 25 24 23 23 23 23 23 23 24 24 24 24 24 24 24 23 23 22
25 24 24 24 25 25 25 26 26 26 27 27 26 26 26 25 24 23 23 23 23 23 23 23 23 23 23 22 22 22 22 22 23 23 23 23 22 22 22 22 21 21 21 21
25 25 25 25 25 25 25 25 25 25 25 26 25 25 25 25 23 23 23 23 23 23 23 24 24 23 22 21 21 21 22 23 23 22 22 21 20 20 20 20 20 20 20 20
25 25 25 25 25 25 24 24 25 25 24 24 24 24 24 25 24 24 24 24 24 24 24 24 23 22 21 21 21 20 21 21 21 21 20 20 19 19 18 18 18 19 19 19
24 24 25 24 24 25 25 25 25 24 23 23 23 23 23 23 24 24 24 24 24 24 24 24 23 22 22 21 21 20 20 20 19 19 19 18 18 18 18 18 17 18 18 17
24 24 24 24 24 24 25 25 25 24 23 23 23 23 23 22 22 23 24 24 24 23 23 23 23 23 23 22 22 21 21 19 19 18 17 17 17 17 17 17 16 16 16 16
23 23 23 23 23 24 24 24 24 23 23 23 23 23 23 22 22 23 23 24 23 23 22 22 22 22 22 21 20 20 19 19 19 17 17 17 16 16 15 15 15 16 16 16
21 21 22 22 22 23 23 24 24 23 23 23 23 22 22 22 22 23 23 23 23 22 21 21 21 20 20 20 19 19 18 18 18 17 17 17 16 16 16 15 15 16 16 16
19 19 20 21 22 23 23 23 23 23 23 23 23 23 22 22 22 22 23 22 22 21 20 20 20 20 20 20 19 18 18 18 17 16 16 16 15 15 15 15 15 15 16 16
19 20 21 21 22 22 22 22 22 23 23 23 23 23 23 23 23 22 22 21 20 20 20 20 20 19 19 18 18 18 18 18 17 16 16 16 15 15 15 16 16 16 16 16
20 21 21 21 21 22 22 22 23 23 23 23 23 22 22 22 22 22 22 21 20 20 20 20 20 19 18 18 17 17 17 17 17 16 16 16 16 15 16 16 16 16 16 17
21 21 21 21 22 22 23 23 23 22 22 22 22 22 22 22 22 22 21 21 20 20 20 20 20 19 18 18 18 18 17 17 17 17 16 16 16 16 16 15 15 15 16 16
21 21 22 22 22 22 23 23 23 23 22 22 22 22 23 22 22 21 20 20 20 19 19 19 19 19 19 19 18 18 18 18 18 18 17 17 17 16 16 16 16 16 16 16
22 22 22 23 23 23 23 23 23 23 22 22 22 23 23 22 22 21 21 20 19 19 19 18 17 17 17 18 19 19 18 18 18 18 17 17 17 17 17 16 16 17 17 17
22 23 23 23 24 24 24 23 23 23 22 23 23 23 23 22 22 22 21 20 19 19 19 18 18 18 18 18 18 19 19 19 19 19 19 18 18 18 17 17 17 17 17 18
23 24 24 24 24 24 24 24 24 23 24 24 24 23 23 22 22 21 21 20 19 19 19 18 18 18 18 19 19 20 20 20 20 19 19 19 19 19 18 19 19 19 19 19
25 25 25 25 25 25 25 25 25 25 25 25 24 24 23 22 22 21 21 20 20 19 19 19 19 19 19 20 20 20 20 20 20 20 19 19 19 19 19 19 19 19 19 19
Wind_Direction
274 274 272 272 275 275 276 279 283 288 291 294 293 292 290 291 290 290 288 285 286 285 283 280 276 273 273 272 270 269 269 270 270 269 268 267 267 269 270 271 273 273 272 273
271 273 273 271 273 276 277 280 284 287 290 292 289 289 290 290 289 290 291 288 288 288 284 281 278 274 274 272 271 271 272 273 271 270 268 267 268 269 269 271 272 272 273 271
270 270 271 271 274 277 279 280 284 289 291 288 287 289 291 290 290 292 293 292 291 290 286 282 279 276 273 272 272 272 273 273 271 270 268 268 270 270 271 271 272 272 271 269
267 266 268 274 276 280 282 283 284 285 286 288 287 289 291 290 290 291 293 294 293 290 287 284 282 278 276 275 273 274 274 273 272 271 270 270 271 271 271 272 272 271 270 268
265 266 270 273 279 283 284 282 283 285 285 287 289 288 289 291 291 289 291 294 293 290 290 287 283 279 279 278 276 275 275 274 274 273 273 274 275 273 272 272 273 272 271 270
266 268 271 274 280 283 283 282 283 284 285 286 288 288 291 291 290 289 290 291 290 288 288 287 284 281 282 280 279 277 275 275 276 276 276 275 275 274 273 272 273 273 273 272
267 269 271 275 279 282 283 283 283 284 285 288 291 291 290 288 289 290 290 290 288 286 286 285 284 282 284 283 281 279 276 275 276 277 278 277 276 274 273 273 273 274 273 272
266 269 272 275 275 278 280 280 282 284 286 288 291 291 289 288 289 290 289 287 286 285 284 283 282 283 283 282 280 278 277 278 280 279 278 278 277 275 274 274 274 273 273 272
268 270 271 272 275 277 279 280 281 283 285 287 288 289 289 289 289 288 287 284 282 282 283 282 282 282 282 282 280 278 277 280 281 280 278 278 277 276 275 273 272 272 273 270
266 267 270 272 273 275 276 279 281 283 284 285 285 286 289 290 288 286 285 283 281 283 283 282 281 281 283 283 281 278 279 280 280 279 279 279 277 276 276 275 273 272 273 271
266 268 270 272 273 275 278 281 282 283 286 287 286 286 287 288 287 286 286 285 284 284 284 282 281 283 284 282 281 281 283 283 282 281 280 278 277 276 276 276 275 271 272 271
268 269 270 272 274 276 278 281 284 285 286 288 287 287 287 287 287 285 286 285 286 286 286 283 282 283 284 283 281 281 283 285 285 282 282 280 277 276 275 273 271 271 272 271
269 268 270 272 274 276 279 282 285 286 286 288 288 287 287 285 285 285 286 284 284 286 287 285 283 282 283 283 283 283 285 287 287 283 282 279 277 276 275 273 271 270 271 269
270 270 270 271 273 276 278 282 285 287 288 289 288 288 288 287 285 285 286 284 285 286 286 285 283 282 280 281 282 283 286 287 287 285 283 279 276 275 274 273 273 272 272 271
270 272 272 272 273 275 277 280 285 288 288 288 288 289 290 288 285 286 287 286 286 285 284 283 282 281 280 281 281 281 284 287 287 284 281 278 276 275 274 274 275 274 272 270
268 271 273 273 274 276 278 280 284 287 288 288 288 290 290 288 287 288 288 287 286 286 283 282 281 280 280 283 284 284 283 284 285 282 280 279 277 275 274 275 274 273 272 272
267 270 272 273 275 277 279 282 284 285 286 286 287 288 289 289 288 288 287 285 286 286 283 282 282 280 281 282 284 285 285 283 282 281 279 279 277 275 274 274 274 272 270 271
267 268 270 273 276 278 279 282 284 284 284 284 285 286 289 290 290 289 286 284 285 286 284 282 280 280 281 281 284 285 285 284 282 279 279 277 277 276 276 275 274 271 270 269
266 268 269 271 275 278 280 282 284 284 284 283 283 284 287 290 289 288 287 285 283 283 282 281 280 280 281 281 282 283 283 282 280 280 279 277 276 277 276 275 273 271 270 270
268 271 272 273 275 278 280 282 284 285 284 283 283 284 285 287 288 288 288 285 283 281 280 279 279 280 282 281 280 281 282 282 279 278 278 278 277 277 276 274 272 271 270 270
269 271 273 274 277 279 282 283 284 285 284 283 283 283 284 286 288 287 287 287 284 281 280 278 276 277 278 279 280 281 282 281 279 279 279 278 277 278 278 276 273 271 270 269
270 271 273 276 279 280 281 283 284 285 284 282 283 284 285 286 287 287 286 285 283 282 280 278 278 276 275 275 276 277 279 280 281 281 280 278 277 277 277 276 274 274 272 271
270 272 275 277 279 281 282 283 284 284 283 283 283 284 286 285 285 286 284 283 282 281 280 279 277 276 274 273 273 275 278 280 280 280 279 277 276 275 274 274 274 274 275 274
272 276 278 279 280 281 282 283 283 282 282 283 284 285 285 283 283 284 283 281 280 279 279 278 277 277 275 273 272 275 277 278 278 278 278 276 275 275 275 275 275 275 276 276
275 278 280 281 282 282 281 281 281 280 280 283 285 285 284 282 281 282 282 280 278 277 278 277 275 276 275 275 275 277 279 279 278 277 276 274 274 275 275 274 274 275 277 277
277 279 281 282 282 281 280 279 280 279 280 282 283 283 282 280 279 279 280 279 277 277 279 278 276 275 275 274 273 275 278 279 279 276 275 274 273 273 273 273 273 274 276 277
277 279 279 280 281 280 279 279 280 280 281 282 282 282 281 279 277 276 277 277 276 275 275 276 276 276 275 273 273 276 278 280 280 277 275 274 273 271 272 272 272 274 276 277
Height
5608 5608 5606 5606 5606 5604 5602 5601 5599 5598 5597 5596 5593 5590 5588 5585 5583 5581 5580 5579 5577 5576 5574 5573 5572 5571 5570 5570 5570 5570 5570 5569 5569 5569 5569 5569 5569 5569 5569 5568 5567 5567 5566 5565
5600 5600 5598 5598 5598 5597 5596 5594 5592 5591 5590 5590 5586 5583 5581 5579 5577 5575 5573 5572 5570 5569 5567 5566 5564 5564 5563 5562 5562 5562 5561 5561 5560 5560 5560 5560 5560 5560 5560 5559 5559 5558 5557 5557
5592 5592 5591 5591 5592 5590 5589 5587 5586 5583 5584 5582 5579 5577 5575 5573 5571 5569 5567 5565 5563 5562 5560 5558 5557 5556 5555 5555 5554 5553 5553 5552 5551 5551 5551 5552 5552 5551 5551 5551 5550 5549 5548 5548
5585 5585 5583 5588 5585 5584 5582 5580 5579 5577 5576 5574 5573 5570 5568 5566 5564 5562 5561 5559 5556 5554 5552 5551 5549 5548 5547 5547 5546 5545 5544 5543 5543 5543 5543 5543 5542 5542 5542 5542 5541 5540 5540 5539
5577 5576 5576 5579 5579 5576 5574 5573 5572 5570 5568 5567 5565 5563 5562 5560 5557 5555 5554 5552 5549 5547 5545 5543 5542 5541 5540 5539 5538 5537 5536 5535 5535 5535 5535 5534 5533 5533 5533 5532 5532 5531 5530 5530
5570 5569 5569 5573 5572 5569 5568 5566 5566 5563 5562 5560 5558 5557 5556 5553 5550 5548 5546 5544 5542 5540 5538 5537 5535 5534 5533 5532 5531 5530 5529 5528 5528 5527 5527 5526 5525 5524 5523 5523 5522 5522 5521 5521
5563 5561 5562 5565 5564 5562 5562 5561 5558 5556 5554 5553 5551 5550 5548 5546 5544 5542 5540 5538 5535 5533 5532 5530 5529 5527 5526 5525 5524 5523 5522 5522 5521 5520 5519 5518 5516 5515 5514 5514 5513 5513 5512 5511
5555 5554 5558 5557 5556 5555 5554 5552 5551 5548 5547 5545 5544 5542 5540 5539 5537 5534 5532 5530 5528 5526 5525 5523 5522 5521 5520 5519 5518 5516 5515 5514 5513 5512 5510 5509 5508 5506 5505 5504 5504 5503 5503 5502
5549 5550 5550 5548 5548 5547 5546 5545 5543 5541 5540 5538 5537 5535 5533 5531 5529 5527 5525 5523 5521 5520 5518 5516 5515 5514 5513 5511 5510 5509 5508 5506 5505 5503 5502 5500 5499 5498 5497 5496 5495 5495 5495 5494
5540 5541 5542 5541 5540 5539 5538 5536 5535 5534 5532 5530 5529 5528 5526 5524 5522 5520 5518 5516 5515 5513 5511 5509 5508 5506 5505 5503 5502 5501 5500 5498 5497 5495 5494 5492 5491 5489 5489 5488 5487 5487 5486 5486
5532 5534 5533 5533 5532 5531 5530 5528 5527 5526 5525 5523 5521 5520 5518 5516 5514 5512 5510 5509 5507 5506 5504 5502 5501 5499 5497 5496 5494 5493 5492 5490 5489 5487 5486 5484 5483 5481 5481 5480 5479 5479 5479 5479
5526 5527 5525 5526 5525 5523 5522 5521 5520 5518 5517 5515 5514 5512 5510 5509 5507 5505 5503 5502 5500 5498 5497 5495 5493 5492 5490 5488 5487 5486 5484 5483 5481 5480 5478 5477 5475 5474 5473 5472 5472 5472 5472 5472
5517 5517 5517 5517 5516 5516 5515 5514 5512 5511 5509 5508 5506 5505 5503 5501 5500 5498 5496 5495 5493 5491 5489 5488 5486 5484 5483 5481 5480 5479 5477 5476 5474 5472 5471 5469 5468 5468 5467 5466 5465 5465 5465 5465
5509 5509 5509 5509 5509 5508 5507 5506 5505 5503 5502 5500 5499 5497 5495 5494 5492 5491 5489 5487 5486 5484 5482 5480 5479 5477 5476 5474 5473 5472 5470 5469 5468 5466 5464 5463 5462 5462 5461 5460 5460 5459 5459 5458
5501 5501 5502 5501 5501 5500 5500 5499 5498 5496 5495 5493 5492 5490 5488 5487 5485 5483 5481 5480 5478 5476 5475 5473 5471 5470 5468 5467 5466 5465 5464 5462 5461 5459 5458 5457 5456 5455 5455 5454 5454 5453 5453 5453
5494 5494 5494 5494 5494 5493 5492 5491 5490 5489 5488 5486 5485 5483 5481 5480 5478 5476 5474 5472 5470 5469 5467 5466 5464 5463 5461 5460 5459 5459 5457 5456 5455 5453 5452 5451 5450 5450 5449 5449 5448 5448 5448 5448
5486 5486 5486 5486 5486 5486 5485 5484 5483 5482 5480 5479 5478 5476 5474 5473 5471 5469 5467 5465 5463 5461 5460 5459 5457 5456 5455 5454 5453 5452 5451 5450 5449 5448 5447 5446 5445 5445 5444 5443 5443 5443 5443 5442
5479 5479 5479 5479 5479 5478 5477 5476 5475 5474 5473 5472 5470 5469 5468 5466 5464 5462 5460 5458 5456 5454 5453 5452 5451 5450 5449 5448 5448 5447 5446 5445 5444 5443 5442 5441 5440 5439 5439 5438 5438 5438 5438 5438
5472 5472 5472 5472 5471 5470 5470 5469 5468 5467 5466 5465 5463 5462 5461 5459 5458 5455 5453 5451 5450 5448 5447 5445 5444 5444 5443 5442 5442 5441 5440 5439 5438 5437 5437 5436 5435 5435 5434 5434 5433 5433 5433 5433
5465 5465 5465 5464 5464 5463 5462 5461 5461 5460 5459 5457 5456 5455 5454 5453 5451 5449 5447 5445 5444 5442 5441 5440 5439 5438 5437 5437 5436 5436 5435 5434 5433 5432 5432 5431 5431 5430 5429 5429 5428 5428 5428 5428
5458 5458 5457 5457 5457 5456 5455 5454 5453 5452 5451 5450 5449 5448 5447 5446 5444 5442 5441 5439 5438 5436 5435 5434 5433 5433 5432 5431 5431 5430 5430 5429 5428 5428 5427 5426 5426 5425 5424 5424 5423 5423 5423 5423
5450 5450 5450 5450 5449 5449 5448 5447 5446 5445 5444 5443 5442 5441 5440 5439 5437 5436 5434 5433 5432 5430 5429 5429 5428 5427 5426 5426 5426 5425 5425 5424 5423 5423 5422 5421 5421 5420 5420 5419 5418 5418 5418 5418
5443 5443 5443 5442 5442 5441 5440 5440 5439 5437 5437 5436 5435 5434 5433 5432 5430 5429 5428 5427 5425 5424 5423 5422 5421 5421 5420 5420 5420 5420 5419 5419 5418 5418 5417 5416 5415 5415 5414 5414 5413 5413 5413 5412
5435 5435 5435 5435 5434 5434 5433 5432 5431 5430 5429 5428 5428 5427 5425 5424 5423 5422 5421 5420 5419 5418 5417 5416 5416 5415 5415 5414 5414 5414 5413 5413 5413 5412 5411 5411 5410 5409 5409 5408 5408 5408 5407 5407
5428 5428 5427 5427 5426 5425 5425 5424 5423 5422 5422 5421 5420 5419 5418 5417 5416 5415 5414 5413 5412 5411 5411 5410 5410 5409 5409 5408 5408 5408 5407 5407 5406 5406 5405 5405 5404 5404 5403 5403 5402 5402 5402 5401
5420 5419 5419 5418 5418 5417 5416 5416 5415 5414 5414 5413 5412 5411 5410 5409 5408 5407 5407 5406 5405 5405 5404 5404 5403 5403 5403 5402 5402 5402 5401 5401 5400 5399 5399 5398 5398 5397 5397 5397 5396 5396 5396 5395
5411 5411 5410 5410 5409 5408 5408 5407 5407 5406 5405 5404 5404 5403 5402 5401 5400 5400 5400 5399 5399 5398 5398 5398 5397 5397 5396 5396 5396 5395 5395 5394 5393 5393 5392 5392 5391 5391 5390 5390 5390 5390 5389 5389